Time,TemperatureF,DewpointF,PressureIn,WindDirection,WindDirectionDegrees,WindSpeedMPH,WindSpeedGustMPH,Humidity,HourlyPrecipIn,Conditions,Clouds,dailyrainin,SoftwareType,DateUTC
2013-04-12 10:34:00,41.7,28.9,26.81,North,0,8.7,8.7,60,0.00,,,0.00,VWS V14.01,2013-04-12 16:34:00,
2013-04-12 10:39:00,41.7,29.3,26.81,North,0,10.0,15.8,61,0.00,,,0.00,VWS V14.01,2013-04-12 16:39:00,
2013-04-12 10:44:00,41.7,29.7,26.82,NNW,338,12.9,15.8,62,0.00,,,0.00,VWS V14.01,2013-04-12 16:44:00,
2013-04-12 10:49:00,41.5,29.5,26.82,North,0,10.9,11.8,62,0.00,,,0.00,VWS V14.01,2013-04-12 16:49:00,
2013-04-12 10:54:00,41.5,29.9,26.82,North,0,7.8,11.8,63,0.00,,,0.00,VWS V14.01,2013-04-12 16:54:00,
2013-04-12 10:59:00,41.5,29.9,26.82,North,0,11.6,11.8,63,0.00,,,0.00,VWS V14.01,2013-04-12 16:59:00,
2013-04-12 11:05:00,42.0,30.3,26.82,NE,45,8.9,11.8,63,0.00,,,0.00,VWS V14.01,2013-04-12 17:05:00,
2013-04-12 11:10:00,42.0,30.3,26.82,NNW,338,6.4,12.3,63,0.00,,,0.00,VWS V14.01,2013-04-12 17:10:00,
2013-04-12 11:15:00,42.4,30.7,26.83,North,0,10.0,12.3,63,0.00,,,0.00,VWS V14.01,2013-04-12 17:15:00,
2013-04-12 11:20:00,42.4,30.7,26.82,North,0,9.8,12.0,63,0.00,,,0.00,VWS V14.01,2013-04-12 17:20:00,
2013-04-12 11:26:00,42.6,30.9,26.83,North,0,7.6,12.0,63,0.00,,,0.00,VWS V14.01,2013-04-12 17:26:00,
2013-04-12 11:31:00,43.1,31.4,26.83,North,0,10.2,10.2,63,0.00,,,0.00,VWS V14.01,2013-04-12 17:31:00,
2013-04-12 11:37:00,44.4,32.6,26.82,North,0,11.4,11.6,63,0.00,,,0.00,VWS V14.01,2013-04-12 17:37:00,
2013-04-12 11:44:00,45.3,32.7,26.82,North,0,9.6,11.6,61,0.00,,,0.00,VWS V14.01,2013-04-12 17:44:00,
2013-04-12 11:52:00,44.6,32.0,26.83,NNW,338,12.0,12.0,61,0.00,,,0.00,VWS V14.01,2013-04-12 17:52:00,
2013-04-12 11:58:00,44.9,32.7,26.83,North,0,11.1,12.0,62,0.00,,,0.00,VWS V14.01,2013-04-12 17:58:00,
2013-04-12 12:04:00,46.2,33.5,26.83,North,0,9.3,9.3,61,0.00,,,0.00,VWS V14.01,2013-04-12 18:04:00,
2013-04-12 12:10:00,47.4,33.8,26.83,NNW,338,8.0,11.4,59,0.00,,,0.00,VWS V14.01,2013-04-12 18:10:00,
2013-04-12 12:15:00,48.0,34.4,26.83,NNW,338,11.4,11.4,59,0.00,,,0.00,VWS V14.01,2013-04-12 18:15:00,
2013-04-12 12:21:00,48.7,34.6,26.83,NW,315,6.0,10.0,58,0.00,,,0.00,VWS V14.01,2013-04-12 18:21:00,
2013-04-12 13:28:00,46.0,33.3,26.82,North,0,10.5,16.7,61,0.00,,,0.00,VWS V14.01,2013-04-12 19:28:00,
2013-04-12 13:31:00,45.5,32.8,26.83,North,0,10.2,10.2,61,0.00,,,0.00,VWS V14.01,2013-04-12 19:31:00,
2013-04-12 13:32:00,45.3,33.1,26.82,NW,315,12.0,12.0,62,0.00,,,0.00,VWS V14.01,2013-04-12 19:32:00,
2013-04-12 13:33:00,45.3,33.1,26.82,NW,315,12.0,12.0,62,0.00,,,0.00,VWS V14.01,2013-04-12 19:33:00,
2013-04-12 13:38:00,44.9,32.7,26.82,North,0,8.2,13.6,62,0.00,,,0.00,VWS V14.01,2013-04-12 19:38:00,
2013-04-12 13:44:00,44.7,32.9,26.82,North,0,12.5,13.6,63,0.00,,,0.00,VWS V14.01,2013-04-12 19:44:00,
2013-04-12 13:49:00,44.4,32.6,26.83,NNW,338,9.6,9.6,63,0.00,,,0.00,VWS V14.01,2013-04-12 19:49:00,
2013-04-12 13:54:00,44.4,33.0,26.82,NNW,338,9.8,9.8,64,0.00,,,0.00,VWS V14.01,2013-04-12 19:54:00,
2013-04-12 13:59:00,44.4,33.0,26.82,NNE,22,9.1,14.3,64,0.00,,,0.00,VWS V14.01,2013-04-12 19:59:00,
2013-04-12 14:04:00,44.7,32.9,26.82,NNW,338,7.1,12.3,63,0.00,,,0.00,VWS V14.01,2013-04-12 20:04:00,
2013-04-12 14:09:00,45.1,33.3,26.82,NNE,22,10.0,12.3,63,0.00,,,0.00,VWS V14.01,2013-04-12 20:09:00,
2013-04-12 14:14:00,45.3,33.1,26.82,NW,315,13.1,14.5,62,0.00,,,0.00,VWS V14.01,2013-04-12 20:14:00,
2013-04-12 14:19:00,45.3,33.1,26.82,North,0,9.8,9.8,62,0.00,,,0.00,VWS V14.01,2013-04-12 20:19:00,
2013-04-12 14:24:00,45.6,33.3,26.82,NW,315,11.1,11.1,62,0.00,,,0.00,VWS V14.01,2013-04-12 20:24:00,
2013-04-12 14:29:00,46.0,33.7,26.83,North,0,8.2,11.1,62,0.00,,,0.00,VWS V14.01,2013-04-12 20:29:00,
2013-04-12 14:35:00,46.5,33.8,26.83,NNW,338,7.3,8.5,61,0.00,,,0.00,VWS V14.01,2013-04-12 20:35:00,
2013-04-12 14:40:00,46.2,33.5,26.82,North,0,13.4,13.4,61,0.00,,,0.00,VWS V14.01,2013-04-12 20:40:00,
2013-04-12 14:45:00,46.0,33.3,26.83,NW,315,11.8,13.4,61,0.00,,,0.00,VWS V14.01,2013-04-12 20:45:00,
2013-04-12 14:50:00,45.1,32.9,26.83,North,0,9.6,10.0,62,0.00,,,0.00,VWS V14.01,2013-04-12 20:50:00,
2013-04-12 14:55:00,45.1,33.3,26.83,NNW,338,10.2,10.2,63,0.00,,,0.00,VWS V14.01,2013-04-12 20:55:00,
2013-04-12 15:00:00,45.5,33.7,26.83,NNW,338,12.3,12.3,63,0.00,,,0.00,VWS V14.01,2013-04-12 21:00:00,
2013-04-12 15:05:00,45.5,33.2,26.83,NNW,338,8.5,12.3,62,0.00,,,0.00,VWS V14.01,2013-04-12 21:05:00,
2013-04-12 15:10:00,45.1,33.3,26.83,NNE,22,9.6,12.3,63,0.00,,,0.00,VWS V14.01,2013-04-12 21:10:00,
2013-04-12 15:15:00,44.7,32.9,26.83,NW,315,7.1,7.1,63,0.00,,,0.00,VWS V14.01,2013-04-12 21:15:00,
2013-04-12 15:20:00,44.4,33.0,26.83,NW,315,14.0,15.8,64,0.00,,,0.00,VWS V14.01,2013-04-12 21:20:00,
2013-04-12 15:25:00,44.7,33.3,26.83,NNW,338,13.8,15.8,64,0.00,,,0.00,VWS V14.01,2013-04-12 21:25:00,
2013-04-12 15:30:00,44.6,33.2,26.83,NNW,338,12.0,12.0,64,0.00,,,0.00,VWS V14.01,2013-04-12 21:30:00,
2013-04-12 15:36:00,44.4,33.0,26.83,NW,315,18.7,18.7,64,0.00,,,0.00,VWS V14.01,2013-04-12 21:36:00,
2013-04-12 15:41:00,43.8,32.4,26.83,North,0,5.1,18.7,64,0.00,,,0.00,VWS V14.01,2013-04-12 21:41:00,
2013-04-12 15:47:00,43.8,32.4,26.83,NW,315,14.5,14.5,64,0.00,,,0.00,VWS V14.01,2013-04-12 21:47:00,
2013-04-12 15:52:00,44.2,32.8,26.83,North,0,7.6,14.5,64,0.00,,,0.00,VWS V14.01,2013-04-12 21:52:00,
2013-04-12 15:57:00,44.9,33.1,26.83,North,0,10.5,14.5,63,0.00,,,0.00,VWS V14.01,2013-04-12 21:57:00,
2013-04-12 16:02:00,44.4,32.6,26.83,NNE,22,12.9,15.6,63,0.00,,,0.00,VWS V14.01,2013-04-12 22:02:00,
2013-04-12 16:07:00,43.8,32.0,26.83,North,0,15.6,17.8,63,0.00,,,0.00,VWS V14.01,2013-04-12 22:07:00,
2013-04-12 16:12:00,43.3,32.0,26.83,North,0,10.7,17.8,64,0.00,,,0.00,VWS V14.01,2013-04-12 22:12:00,
2013-04-12 16:17:00,43.3,32.0,26.83,NNE,22,6.2,9.3,64,0.00,,,0.00,VWS V14.01,2013-04-12 22:17:00,
2013-04-12 16:22:00,43.7,32.3,26.83,NNW,338,11.4,11.8,64,0.00,,,0.00,VWS V14.01,2013-04-12 22:22:00,
2013-04-12 16:27:00,44.0,32.6,26.83,North,0,7.6,11.8,64,0.00,,,0.00,VWS V14.01,2013-04-12 22:27:00,
2013-04-12 16:32:00,44.2,32.4,26.83,NNE,22,6.9,17.4,63,0.00,,,0.00,VWS V14.01,2013-04-12 22:32:00,
2013-04-12 16:38:00,43.8,31.6,26.83,WNW,292,11.4,17.4,62,0.00,,,0.00,VWS V14.01,2013-04-12 22:38:00,
2013-04-12 16:43:00,43.7,31.5,26.83,WNW,292,8.7,17.4,62,0.00,,,0.00,VWS V14.01,2013-04-12 22:43:00,
2013-04-12 16:48:00,43.3,31.2,26.83,NNW,338,10.0,12.7,62,0.00,,,0.00,VWS V14.01,2013-04-12 22:48:00,
2013-04-12 16:53:00,42.9,30.8,26.84,NNE,22,7.6,12.7,62,0.00,,,0.00,VWS V14.01,2013-04-12 22:53:00,
2013-04-12 16:58:00,42.6,30.5,26.83,WNW,292,4.9,15.4,62,0.00,,,0.00,VWS V14.01,2013-04-12 22:58:00,
2013-04-12 17:03:00,42.4,30.3,26.84,NW,315,8.2,14.3,62,0.00,,,0.00,VWS V14.01,2013-04-12 23:03:00,
2013-04-12 17:08:00,42.2,30.1,26.84,WNW,292,10.0,14.3,62,0.00,,,0.00,VWS V14.01,2013-04-12 23:08:00,
2013-04-12 17:13:00,42.2,30.1,26.84,WNW,292,8.9,14.3,62,0.00,,,0.00,VWS V14.01,2013-04-12 23:13:00,
2013-04-12 17:19:00,42.4,30.3,26.85,NNW,338,10.5,10.5,62,0.00,,,0.00,VWS V14.01,2013-04-12 23:19:00,
2013-04-12 17:24:00,42.0,29.9,26.85,North,0,14.7,14.7,62,0.00,,,0.00,VWS V14.01,2013-04-12 23:24:00,
2013-04-12 17:29:00,41.9,29.9,26.85,NNW,338,19.4,19.4,62,0.00,,,0.00,VWS V14.01,2013-04-12 23:29:00,
2013-04-12 17:34:00,41.5,29.9,26.85,NNW,338,5.1,8.9,63,0.00,,,0.00,VWS V14.01,2013-04-12 23:34:00,
2013-04-12 17:39:00,40.8,30.0,26.86,NW,315,8.2,15.2,65,0.00,,,0.00,VWS V14.01,2013-04-12 23:39:00,
2013-04-12 17:44:00,40.2,29.8,26.86,WNW,292,10.0,15.2,66,0.00,,,0.00,VWS V14.01,2013-04-12 23:44:00,
2013-04-12 17:49:00,39.5,30.2,26.86,WNW,292,19.6,19.6,69,0.00,,,0.00,VWS V14.01,2013-04-12 23:49:00,
2013-04-12 17:54:00,39.0,30.1,26.86,NW,315,12.3,19.6,70,0.00,,,0.00,VWS V14.01,2013-04-12 23:54:00,
2013-04-12 17:59:00,38.8,30.2,26.86,NW,315,8.2,19.6,71,0.00,,,0.00,VWS V14.01,2013-04-12 23:59:00,
2013-04-12 18:04:00,38.3,30.1,26.86,NNW,338,10.9,11.8,72,0.00,,,0.00,VWS V14.01,2013-04-13 00:04:00,
2013-04-12 18:09:00,38.3,30.1,26.86,NNW,338,7.8,11.8,72,0.00,,,0.00,VWS V14.01,2013-04-13 00:09:00,
2013-04-12 18:14:00,38.3,30.4,26.86,North,0,9.6,11.8,73,0.00,,,0.00,VWS V14.01,2013-04-13 00:14:00,
2013-04-12 18:19:00,38.3,30.4,26.86,WNW,292,12.5,13.8,73,0.00,,,0.00,VWS V14.01,2013-04-13 00:19:00,
2013-04-12 18:24:00,38.1,30.2,26.86,NNW,338,14.5,14.5,73,0.00,,,0.00,VWS V14.01,2013-04-13 00:24:00,
2013-04-12 18:29:00,37.9,30.0,26.86,NNW,338,10.2,14.5,73,0.00,,,0.00,VWS V14.01,2013-04-13 00:29:00,
2013-04-12 18:35:00,37.5,29.6,26.86,North,0,8.2,12.5,73,0.00,,,0.00,VWS V14.01,2013-04-13 00:35:00,
2013-04-12 18:40:00,37.2,29.7,26.86,NNW,338,8.7,12.5,74,0.00,,,0.00,VWS V14.01,2013-04-13 00:40:00,
2013-04-12 18:45:00,37.2,29.7,26.86,ENE,68,5.3,12.5,74,0.00,,,0.00,VWS V14.01,2013-04-13 00:45:00,
2013-04-12 18:50:00,37.2,30.0,26.86,NNW,338,3.3,12.3,75,0.00,,,0.00,VWS V14.01,2013-04-13 00:50:00,
2013-04-12 18:55:00,37.2,30.0,26.86,NNE,22,10.0,12.3,75,0.00,,,0.00,VWS V14.01,2013-04-13 00:55:00,
2013-04-12 19:00:00,37.2,30.0,26.86,NNW,338,10.7,12.3,75,0.00,,,0.00,VWS V14.01,2013-04-13 01:00:00,
2013-04-12 19:05:00,37.4,30.2,26.86,NNW,338,9.6,10.5,75,0.00,,,0.00,VWS V14.01,2013-04-13 01:05:00,
2013-04-12 19:10:00,37.2,30.0,26.86,NNW,338,8.9,10.5,75,0.00,,,0.00,VWS V14.01,2013-04-13 01:10:00,
2013-04-12 19:16:00,37.0,29.8,26.85,North,0,4.4,4.4,75,0.00,,,0.00,VWS V14.01,2013-04-13 01:16:00,
2013-04-12 19:21:00,36.6,29.1,26.85,NNE,22,5.1,5.1,74,0.00,,,0.00,VWS V14.01,2013-04-13 01:21:00,
2013-04-12 19:26:00,36.3,28.8,26.85,North,0,2.9,8.0,74,0.00,,,0.00,VWS V14.01,2013-04-13 01:26:00,
2013-04-12 19:31:00,36.1,29.0,26.86,NNW,338,3.1,3.1,75,0.00,,,0.00,VWS V14.01,2013-04-13 01:31:00,
2013-04-12 19:37:00,35.7,28.6,26.86,WNW,292,0.0,3.1,75,0.00,,,0.00,VWS V14.01,2013-04-13 01:37:00,
2013-04-12 19:42:00,35.4,28.3,26.86,WNW,292,0.8,4.0,75,0.00,,,0.00,VWS V14.01,2013-04-13 01:42:00,
2013-04-12 19:47:00,34.8,27.7,26.86,NNW,338,1.5,4.0,75,0.00,,,0.00,VWS V14.01,2013-04-13 01:47:00,
2013-04-12 19:52:00,34.7,27.6,26.86,NNW,338,0.0,4.0,75,0.00,,,0.00,VWS V14.01,2013-04-13 01:52:00,
2013-04-12 19:57:00,34.3,27.5,26.86,NW,315,0.0,4.0,76,0.00,,,0.00,VWS V14.01,2013-04-13 01:57:00,
2013-04-12 20:02:00,34.1,27.3,26.86,NW,315,0.0,0.0,76,0.00,,,0.00,VWS V14.01,2013-04-13 02:02:00,
2013-04-12 20:08:00,33.9,27.1,26.86,NNW,338,0.0,0.0,76,0.00,,,0.00,VWS V14.01,2013-04-13 02:08:00,
2013-04-12 20:13:00,33.6,26.9,26.86,NNW,338,0.0,0.0,76,0.00,,,0.00,VWS V14.01,2013-04-13 02:13:00,
2013-04-12 20:18:00,33.6,26.9,26.86,NNW,338,0.0,0.0,76,0.00,,,0.00,VWS V14.01,2013-04-13 02:18:00,
2013-04-12 20:23:00,33.4,26.7,26.86,NNW,338,0.0,0.0,76,0.00,,,0.00,VWS V14.01,2013-04-13 02:23:00,
2013-04-12 20:29:00,33.0,26.3,26.86,NNW,338,0.0,0.0,76,0.00,,,0.00,VWS V14.01,2013-04-13 02:29:00,
2013-04-12 20:34:00,32.7,26.3,26.85,NNW,338,0.0,0.0,77,0.00,,,0.00,VWS V14.01,2013-04-13 02:34:00,
2013-04-12 20:39:00,32.7,26.3,26.86,NNW,338,0.0,2.0,77,0.00,,,0.00,VWS V14.01,2013-04-13 02:39:00,
2013-04-12 20:44:00,32.5,26.1,26.86,NNW,338,0.0,2.0,77,0.00,,,0.00,VWS V14.01,2013-04-13 02:44:00,
2013-04-12 20:49:00,32.5,26.1,26.85,North,0,0.0,0.0,77,0.00,,,0.00,VWS V14.01,2013-04-13 02:49:00,
2013-04-12 20:54:00,32.3,25.9,26.85,NNW,338,0.0,0.0,77,0.00,,,0.00,VWS V14.01,2013-04-13 02:54:00,
2013-04-12 20:59:00,32.1,25.7,26.86,NNW,338,0.0,0.0,77,0.00,,,0.00,VWS V14.01,2013-04-13 02:59:00,
2013-04-12 21:04:00,32.1,25.7,26.86,NNW,338,0.0,0.0,77,0.00,,,0.00,VWS V14.01,2013-04-13 03:04:00,
2013-04-12 21:10:00,32.0,25.6,26.86,WNW,292,2.9,2.9,77,0.00,,,0.00,VWS V14.01,2013-04-13 03:10:00,
2013-04-12 21:15:00,31.8,25.4,26.86,NW,315,3.3,3.3,77,0.00,,,0.00,VWS V14.01,2013-04-13 03:15:00,
2013-04-12 21:20:00,31.8,25.4,26.86,NW,315,0.0,0.0,77,0.00,,,0.00,VWS V14.01,2013-04-13 03:20:00,
2013-04-12 21:25:00,31.8,25.4,26.86,NW,315,0.0,0.0,77,0.00,,,0.00,VWS V14.01,2013-04-13 03:25:00,
2013-04-12 21:30:00,31.6,25.2,26.86,NW,315,0.0,0.0,77,0.00,,,0.00,VWS V14.01,2013-04-13 03:30:00,
2013-04-12 21:35:00,31.6,25.2,26.86,NW,315,0.0,0.0,77,0.00,,,0.00,VWS V14.01,2013-04-13 03:35:00,
2013-04-12 21:40:00,31.2,24.8,26.86,West,270,0.0,0.0,77,0.00,,,0.00,VWS V14.01,2013-04-13 03:40:00,
2013-04-12 21:45:00,31.1,24.8,26.86,WSW,248,0.0,0.0,77,0.00,,,0.00,VWS V14.01,2013-04-13 03:45:00,
2013-04-12 21:50:00,30.9,24.5,26.86,WSW,248,0.0,0.0,77,0.00,,,0.00,VWS V14.01,2013-04-13 03:50:00,
2013-04-12 21:56:00,30.5,24.2,26.86,WSW,248,0.0,0.0,77,0.00,,,0.00,VWS V14.01,2013-04-13 03:56:00,
2013-04-12 22:00:00,30.5,24.2,26.86,WSW,248,0.0,0.0,77,0.00,,,0.00,VWS V14.01,2013-04-13 04:00:00,
2013-04-12 22:01:00,30.3,24.0,26.86,WSW,248,0.0,0.0,77,0.00,,,0.00,VWS V14.01,2013-04-13 04:01:00,
2013-04-12 22:03:00,30.3,24.3,26.86,WSW,248,0.0,0.0,78,0.00,,,0.00,VWS V14.01,2013-04-13 04:03:00,
2013-04-12 22:08:00,30.0,24.0,26.85,WSW,248,0.0,0.0,78,0.00,,,0.00,VWS V14.01,2013-04-13 04:08:00,
2013-04-12 22:13:00,29.8,23.8,26.85,NNE,22,0.0,0.0,78,0.00,,,0.00,VWS V14.01,2013-04-13 04:13:00,
2013-04-12 22:18:00,29.4,23.1,26.85,NNE,22,0.0,0.0,77,0.00,,,0.00,VWS V14.01,2013-04-13 04:18:00,
2013-04-12 22:23:00,29.1,22.8,26.85,South,180,0.0,0.0,77,0.00,,,0.00,VWS V14.01,2013-04-13 04:23:00,
2013-04-12 22:28:00,28.9,22.9,26.85,South,180,0.0,0.0,78,0.00,,,0.00,VWS V14.01,2013-04-13 04:28:00,
2013-04-12 22:33:00,28.7,22.7,26.85,South,180,0.0,0.0,78,0.00,,,0.00,VWS V14.01,2013-04-13 04:33:00,
2013-04-12 22:38:00,28.2,22.2,26.85,South,180,0.0,0.0,78,0.00,,,0.00,VWS V14.01,2013-04-13 04:38:00,
2013-04-12 22:44:00,28.2,22.2,26.85,NW,315,0.0,0.0,78,0.00,,,0.00,VWS V14.01,2013-04-13 04:44:00,
2013-04-12 22:49:00,28.0,22.0,26.85,NW,315,0.0,0.0,78,0.00,,,0.00,VWS V14.01,2013-04-13 04:49:00,
2013-04-12 22:54:00,27.6,21.6,26.85,NW,315,0.0,0.0,78,0.00,,,0.00,VWS V14.01,2013-04-13 04:54:00,
2013-04-12 22:59:00,27.5,21.9,26.85,NW,315,0.0,0.0,79,0.00,,,0.00,VWS V14.01,2013-04-13 04:59:00,
2013-04-12 23:04:00,27.3,21.7,26.85,NW,315,0.0,0.0,79,0.00,,,0.00,VWS V14.01,2013-04-13 05:04:00,
2013-04-12 23:09:00,27.1,21.5,26.85,NW,315,0.0,0.0,79,0.00,,,0.00,VWS V14.01,2013-04-13 05:09:00,
2013-04-12 23:14:00,27.1,21.5,26.85,NW,315,0.0,0.0,79,0.00,,,0.00,VWS V14.01,2013-04-13 05:14:00,
2013-04-12 23:19:00,26.7,21.1,26.84,NW,315,0.0,0.0,79,0.00,,,0.00,VWS V14.01,2013-04-13 05:19:00,
2013-04-12 23:24:00,26.4,20.8,26.85,NW,315,0.0,0.0,79,0.00,,,0.00,VWS V14.01,2013-04-13 05:24:00,
2013-04-12 23:29:00,26.4,20.8,26.84,NW,315,0.0,0.0,79,0.00,,,0.00,VWS V14.01,2013-04-13 05:29:00,
2013-04-12 23:34:00,26.4,20.8,26.84,NW,315,0.0,0.0,79,0.00,,,0.00,VWS V14.01,2013-04-13 05:34:00,
2013-04-12 23:39:00,26.0,20.4,26.84,NW,315,0.0,0.0,79,0.00,,,0.00,VWS V14.01,2013-04-13 05:39:00,
2013-04-12 23:44:00,25.8,20.2,26.84,NW,315,0.0,0.0,79,0.00,,,0.00,VWS V14.01,2013-04-13 05:44:00,
2013-04-12 23:49:00,25.7,20.1,26.84,NW,315,0.0,0.0,79,0.00,,,0.00,VWS V14.01,2013-04-13 05:49:00,
2013-04-12 23:55:00,25.5,19.9,26.83,NW,315,0.0,0.0,79,0.00,,,0.00,VWS V14.01,2013-04-13 05:55:00,